Tucson Davis Monthan, AZ

4:39 PM MST on July 25, 2017 (GMT -0700)
Davis-Monthan Air Force Base

Weather History for KDMA - May, 2014

Change the Weather History Date:

Friday, May 9, 2014

  Actual Average Record
Temperature  
Mean Temperature 68 °F -  
Max Temperature 83 °F 88 °F 100 °F (1984)
Min Temperature 54 °F 57 °F 42 °F (1950)
Cooling Degree Days 4    
Growing Degree Days 18 (Base 50)    
Moisture  
Dew Point 23 °F    
Average Humidity 18    
Maximum Humidity 29    
Minimum Humidity 9    
Precipitation  
Precipitation 0.00 in - - ()
Sea Level Pressure  
Sea Level Pressure 29.88 in    
Wind  
Wind Speed 7 mph (South)    
Max Wind Speed 16 mph    
Max Gust Speed 20 mph    
Visibility 10 miles    
Events      
Averages and records for this station are not official NWS values.
T = Trace of Precipitation, MM = Missing Value Source: NWS Daily Summary

Daily Weather History Graph

Daily Weather History Graph

Search for Another Location

Airport or City:

Trip Planner

Search our weather history database for the weather conditions in past years. The results will help you decide how hot, cold, wet, or windy it might be!

Date:

Astronomy

May. 09, 2014 Rise Set
Actual Time 5:30 AM MST 7:10 PM MST
Civil Twilight 5:03 AM MST 7:36 PM MST
Nautical Twilight 4:31 AM MST 8:08 PM MST
Astronomical Twilight 3:58 AM MST 8:42 PM MST
Moon 2:28 PM MST (5/9) 2:15 AM MST (5/9)
Length of Visible Light 14h 33m
Length of Day
13h 39m
Waxing Gibbous, 74% of the Moon is Illuminated
May 9
Waxing Gibbous
May 14
Full
May 21
Last Quarter
May 28
New
Jun 5
First Quarter

Hourly Weather History & Observations

Time (MST) Temp. Dew Point Humidity Pressure Visibility Wind Dir Wind Speed Gust Speed Precip Events Conditions
12:58 AM 58.3 °F 22.8 °F 25% 29.91 in 10.0 mi SE 8.1 mph - N/A   Clear
1:58 AM 57.4 °F 22.6 °F 26% 29.91 in 10.0 mi SE 5.8 mph - N/A   Clear
2:58 AM 55.0 °F 22.1 °F 28% 29.93 in 10.0 mi SSE 8.1 mph - N/A   Clear
3:58 AM 54.3 °F 21.7 °F 28% 29.93 in 10.0 mi SE 8.1 mph - N/A   Clear
4:58 AM 54.3 °F 22.1 °F 29% 29.93 in 10.0 mi ESE 8.1 mph - N/A   Clear
5:58 AM 55.0 °F 22.8 °F 29% 29.95 in 10.0 mi SSE 4.6 mph - N/A   Clear
6:58 AM 61.0 °F 24.4 °F 25% 29.95 in 10.0 mi SE 5.8 mph - N/A   Clear
7:58 AM 66.9 °F 25.0 °F 21% 29.96 in 10.0 mi South 5.8 mph - N/A   Clear
8:58 AM 70.2 °F 25.2 °F 19% 29.94 in 10.0 mi NE 1.2 mph - N/A   Clear
9:58 AM 74.1 °F 25.5 °F 16% 29.93 in 10.0 mi NW 2.3 mph - N/A   Clear
10:58 AM 76.5 °F 24.4 °F 15% 29.93 in 10.0 mi Variable 4.6 mph - N/A   Clear
11:58 AM 78.4 °F 22.3 °F 12% 29.91 in 10.0 mi SW 8.1 mph - N/A   Partly Cloudy
12:58 PM 81.0 °F 21.7 °F 11% 29.89 in 10.0 mi SSW 4.6 mph - N/A   Mostly Cloudy
1:58 PM 82.4 °F 21.9 °F 11% 29.87 in 10.0 mi West 11.5 mph - N/A   Clear
2:58 PM 82.4 °F 18.7 °F 9% 29.86 in 10.0 mi West 4.6 mph - N/A   Clear
3:58 PM 82.6 °F 21.2 °F 10% 29.82 in 10.0 mi Variable 6.9 mph - N/A   Clear
4:58 PM 83.5 °F 20.5 °F 10% 29.81 in 10.0 mi NNW 16.1 mph 19.6 mph N/A   Clear
5:58 PM 81.9 °F 23.0 °F 11% 29.81 in 10.0 mi North 11.5 mph 18.4 mph N/A   Clear
6:58 PM 79.7 °F 24.1 °F 13% 29.82 in 10.0 mi NNW 15.0 mph - N/A   Clear
7:58 PM 76.6 °F 24.4 °F 14% 29.82 in 10.0 mi NNW 6.9 mph - N/A   Clear
8:58 PM 72.9 °F 24.6 °F 17% 29.82 in 10.0 mi Calm Calm - N/A   Clear
9:58 PM 67.6 °F 24.3 °F 19% 29.84 in 10.0 mi Variable 1.2 mph - N/A   Clear
10:58 PM 65.7 °F 23.9 °F 21% 29.84 in 10.0 mi South 5.8 mph - N/A   Clear
11:58 PM 64.6 °F 23.0 °F 21% 29.84 in 10.0 mi South 8.1 mph - N/A   Clear